[[{"header":{"parameterUnit":"m.s-1","parameterCategory":1,"la1":30.2991,"la2":30.254,"lo1":-89.0895,"lo2":-89.0444,"dy":0.0017,"dx":0.0017,"nx":28,"ny":28,"refTime":"2025-12-31T03:00:00:Z","depth":0,"parameterNumber":2,"parameterNumberName":"U-component_of_WINDS"},"data":[0,0,0,0,0,0,0,0,0,0,0,0,0,0,0,0,0,0,0,0,0,0,0,0,0,0,0,0,0,0,0,0,0,0,0,0,0,0,0,0,0,0,0,0,0,0,0,0,0,0,0,0,0,0,0,0,0,0,1.6996,1.6996,0,1.699,1.699,1.6989,1.6956,1.6955,1.6955,1.6954,1.6947,1.6947,1.6948,0,0,0,0,0,0,0,0,0,0,0,0,0,1.6981,1.6981,1.6996,1.6996,1.6996,1.699,1.699,1.6989,1.6956,1.6955,1.6954,1.6954,1.6947,1.6947,1.6948,0,0,0,0,0,0,0,0,0,0,0,0,0,1.6982,1.6981,1.6996,1.6979,1.6977,1.699,1.699,1.6989,1.6957,1.6955,1.6954,1.6953,1.6946,1.6947,1.6948,1.6977,0,0,1.6951,1.6951,0,0,0,0,0,0,0,0,1.6982,1.6983,1.6981,1.698,1.6978,1.6973,1.6981,1.6985,1.6957,1.6964,1.6954,1.6953,1.6956,1.6956,1.6958,1.6976,1.6976,1.6951,1.6951,1.6952,1.6952,0,0,0,0,0,0,0,1.6982,1.6983,1.6993,1.6981,1.6979,1.6971,1.697,1.6982,1.6967,1.6964,1.6961,1.6961,1.6955,1.6957,1.6957,1.6976,1.6951,1.6951,1.6952,1.6952,1.702,1.7021,0,0,0,0,0,0,1.6984,1.6983,1.6994,1.6993,1.6977,1.6973,1.6971,1.6975,1.6967,1.6964,1.6962,1.6959,1.6956,1.6956,1.6957,1.699,1.6952,1.6952,1.6953,1.7018,1.702,1.7021,0,0,0,0,0,0,1.6984,1.6985,1.6994,1.6987,1.6988,1.6974,1.6979,1.6976,1.6978,1.6966,1.6963,1.6966,1.6955,1.6956,1.6972,1.699,1.6953,1.6953,1.7017,1.7019,1.7021,1.7057,0,0,0,0,0,0,1.6984,1.6986,1.6996,1.6988,1.6988,1.7009,1.698,1.6977,1.6979,1.6976,1.6969,1.6967,1.6954,1.6971,1.6973,1.699,1.6954,1.7015,1.7018,1.702,1.7055,1.706,1.7065,0,0,0,0,0,1.6983,1.7006,1.6997,1.6998,1.7001,1.701,1.7011,1.6996,1.6981,1.6991,1.6984,1.6967,1.6988,1.6973,1.6975,1.6993,1.7014,1.7017,1.702,1.7052,1.7059,1.7065,0,0,0,0,0,0,1.7016,1.7005,1.6994,1.7015,1.7014,1.7005,1.7017,1.7004,1.7007,1.7004,1.6985,1.6984,1.7004,1.7,1.6984,1.7021,1.6998,1.7002,1.7022,1.7029,1.7034,1.7034,1.6955,0,0,0,0,0,1.7025,1.7034,1.7024,1.7043,1.7043,1.7031,1.7034,1.7023,1.7021,1.7021,1.7014,1.7013,1.702,1.7024,1.7029,1.7055,1.7053,1.7068,1.7073,1.7078,1.708,1.7094,1.7101,1.7031,1.7031,1.7031,0,0,1.7045,1.704,1.7046,1.705,1.7047,1.7057,1.703,1.7041,1.7048,1.7022,1.7038,1.7034,1.7031,1.7053,1.7062,1.705,1.71,1.7081,1.7085,1.7085,1.7098,1.7105,1.7111,1.7033,1.7033,1.7032,0,0,1.7086,1.7083,1.7099,1.7098,1.7096,1.7088,1.7092,1.7085,1.7082,1.7097,1.7079,1.7087,1.7098,1.7098,1.7099,1.7143,1.7127,1.7145,1.7172,1.7186,1.7192,1.7197,1.7212,1.7218,1.7148,1.7148,1.7148,0,1.711,1.7124,1.7109,1.7122,1.7124,1.7102,1.7119,1.7119,1.7118,1.7121,1.7108,1.7123,1.712,1.7141,1.7152,1.7154,1.7158,1.7145,1.7192,1.7197,1.7201,1.7216,1.7222,1.715,1.715,1.715,1.715,0,1.7154,1.7164,1.7178,1.7178,1.7183,1.7197,1.7185,1.7192,1.7181,1.7175,1.7192,1.7188,1.7192,1.7197,1.7186,1.7218,1.721,1.7196,1.7172,1.721,1.7224,1.7229,1.7153,1.7153,1.7152,1.7151,0,0,1.7212,1.7207,1.7212,1.7213,1.721,1.7218,1.7232,1.7237,1.7243,1.7244,1.7256,1.7268,1.7254,1.7256,1.7246,1.7258,1.7293,1.7241,1.7241,1.7251,1.7328,1.7339,1.7345,1.7284,1.7285,1.7286,1.7328,0,1.7251,1.7275,1.7264,1.7289,1.7298,1.728,1.7292,1.7292,1.7287,1.7295,1.729,1.7298,1.728,1.7281,1.7292,1.7287,1.7309,1.7284,1.7295,1.7295,1.7295,1.7352,1.7363,1.7403,1.7333,1.7334,1.7335,0,1.7299,1.7303,1.733,1.7327,1.733,1.7342,1.7346,1.7354,1.7354,1.735,1.7353,1.7341,1.7356,1.7334,1.7354,1.7338,1.7342,1.734,1.7342,1.7341,1.7317,1.7353,1.7415,1.7421,1.7343,1.7342,1.7342,0,1.7339,1.7351,1.7369,1.737,1.7367,1.7376,1.7375,1.7374,1.7379,1.7383,1.7386,1.7392,1.7396,1.7401,1.7391,1.7376,1.7413,1.739,1.741,1.741,1.7417,1.7416,1.748,1.7421,1.7421,1.7421,1.7421,0,1.7382,1.7399,1.7387,1.7397,1.7416,1.7404,1.7423,1.7421,1.7421,1.7431,1.7416,1.7426,1.7412,1.7421,1.7414,1.7432,1.7434,1.7431,1.7429,1.7432,1.7432,1.7433,1.743,1.7423,1.7423,1.7422,1.7422,0,1.7429,1.7421,1.7439,1.7436,1.7436,1.745,1.7447,1.7457,1.7452,1.7466,1.7468,1.7461,1.7471,1.7462,1.7472,1.7467,1.7491,1.7485,1.7491,1.7489,1.7509,1.7507,1.7575,1.7583,1.752,1.7521,1.7521,0,1.7457,1.7469,1.7468,1.7474,1.7475,1.7485,1.7489,1.7479,1.7485,1.7487,1.7498,1.7507,1.7513,1.7531,1.7526,1.7534,1.7527,1.7551,1.7528,1.7532,1.7527,1.7526,1.7528,1.7555,1.7556,1.7556,1.7557,0,1.7507,1.7503,1.7511,1.7518,1.7524,1.7529,1.7533,1.7539,1.7528,1.7536,1.7547,1.7552,1.7563,1.7572,1.7579,1.7578,1.7566,1.7565,1.7569,1.7572,1.7575,1.7573,1.7503,1.7562,1.7562,1.7561,1.7561,1.7561,1.7544,1.7555,1.7557,1.7566,1.7568,1.7573,1.7583,1.758,1.7589,1.7597,1.759,1.7603,1.7605,1.7613,1.7615,1.7625,1.7615,1.7622,1.7624,1.7626,1.7628,1.7574,1.7626,1.7626,1.7626,1.7626,1.7626,0,1.7594,1.7594,1.7603,1.761,1.7618,1.7607,1.7611,1.7618,1.763,1.7633,1.7641,1.7654,1.7663,1.7661,1.767,1.7679,1.7673,1.7681,1.768,1.768,1.7637,1.7631,1.7685,1.7685,1.7685,1.7685,1.7685,1.7685,1.762,1.7638,1.7635,1.7655,1.7655,1.7668,1.7671,1.7676,1.7678,1.7694,1.7702,1.7701,1.7702,1.7711,1.772,1.7719,1.7723,1.7733,1.773,1.7689,1.7683,1.7677,1.7672,1.7734,1.7734,1.7772,1.7773,1.7773]},{"header":{"parameterUnit":"m.s-1","parameterCategory":1,"la1":30.2991,"la2":30.254,"lo1":-89.0895,"lo2":-89.0444,"dy":0.0017,"dx":0.0017,"nx":28,"ny":28,"refTime":"2025-12-31T03:00:00:Z","depth":0,"parameterNumber":3,"parameterNumberName":"V-component_of_WINDS"},"data":[0,0,0,0,0,0,0,0,0,0,0,0,0,0,0,0,0,0,0,0,0,0,0,0,0,0,0,0,0,0,0,0,0,0,0,0,0,0,0,0,0,0,0,0,0,0,0,0,0,0,0,0,0,0,0,0,0,0,-6.1939,-6.1941,0,-6.2175,-6.2177,-6.218,-6.2129,-6.2125,-6.212,-6.2116,-6.2355,-6.2365,-6.2376,0,0,0,0,0,0,0,0,0,0,0,0,0,-6.1441,-6.145,-6.1938,-6.1941,-6.1944,-6.2174,-6.2178,-6.2181,-6.213,-6.2125,-6.2119,-6.2114,-6.2352,-6.2364,-6.2377,0,0,0,0,0,0,0,0,0,0,0,0,0,-6.1665,-6.1453,-6.1938,-6.1947,-6.195,-6.2174,-6.2178,-6.2182,-6.2131,-6.2124,-6.2118,-6.2112,-6.2348,-6.2363,-6.2378,-6.2607,0,0,-6.2426,-6.2433,0,0,0,0,0,0,0,0,-6.1652,-6.1683,-6.1942,-6.1946,-6.195,-6.2116,-6.209,-6.2324,-6.2133,-6.2062,-6.2116,-6.2108,-6.2281,-6.2301,-6.236,-6.2618,-6.2629,-6.2428,-6.2437,-6.2444,-6.2448,0,0,0,0,0,0,0,-6.1637,-6.1673,-6.2032,-6.1946,-6.1951,-6.1938,-6.1963,-6.2134,-6.2205,-6.2068,-6.2065,-6.2094,-6.2281,-6.2345,-6.2365,-6.2632,-6.2427,-6.2441,-6.2451,-6.2457,-6.3091,-6.3098,0,0,0,0,0,0,-6.1618,-6.166,-6.2024,-6.2039,-6.1782,-6.1953,-6.198,-6.2069,-6.2203,-6.2218,-6.2099,-6.209,-6.2322,-6.2347,-6.2374,-6.2652,-6.2444,-6.2458,-6.2467,-6.3084,-6.3093,-6.3101,0,0,0,0,0,0,-6.1608,-6.1651,-6.2015,-6.1849,-6.1894,-6.1968,-6.2069,-6.2077,-6.2141,-6.2227,-6.2239,-6.2151,-6.2317,-6.2351,-6.255,-6.2659,-6.2466,-6.248,-6.3075,-6.3087,-6.3097,-6.3209,0,0,0,0,0,0,-6.1594,-6.1648,-6.1736,-6.1851,-6.1903,-6.2188,-6.2076,-6.2087,-6.2169,-6.216,-6.2279,-6.2292,-6.2315,-6.2527,-6.2566,-6.2677,-6.2492,-6.3066,-6.308,-6.3093,-6.3196,-6.3223,-6.3246,0,0,0,0,0,-6.1576,-6.1757,-6.1741,-6.1785,-6.2015,-6.2195,-6.2224,-6.2247,-6.2178,-6.2267,-6.2322,-6.2289,-6.2641,-6.2548,-6.2591,-6.2709,-6.3059,-6.3076,-6.3092,-6.3185,-6.3217,-6.3245,0,0,0,0,0,0,-6.1651,-6.1772,-6.1755,-6.1979,-6.2077,-6.2186,-6.2299,-6.2281,-6.24,-6.2386,-6.2408,-6.2436,-6.2639,-6.2693,-6.2587,-6.2938,-6.284,-6.2866,-6.2895,-6.2927,-6.2951,-6.2934,-6.2505,0,0,0,0,0,-6.1694,-6.1831,-6.1928,-6.2116,-6.2167,-6.2225,-6.2303,-6.2313,-6.2415,-6.2456,-6.2525,-6.2625,-6.2758,-6.2845,-6.2972,-6.3203,-6.3229,-6.3306,-6.333,-6.335,-6.3373,-6.3501,-6.3536,-6.3156,-6.3156,-6.3155,0,0,-6.1784,-6.1867,-6.1951,-6.2134,-6.2211,-6.2351,-6.226,-6.2412,-6.2516,-6.2478,-6.2671,-6.2726,-6.2838,-6.3055,-6.3153,-6.3106,-6.3484,-6.3372,-6.3387,-6.3399,-6.3521,-6.3557,-6.3589,-6.3167,-6.3165,-6.3163,0,0,-6.2019,-6.2095,-6.2261,-6.234,-6.2459,-6.2496,-6.2536,-6.2648,-6.2684,-6.2878,-6.2853,-6.2976,-6.3205,-6.3287,-6.3358,-6.3626,-6.36,-6.3666,-6.3796,-6.392,-6.395,-6.3977,-6.4074,-6.4108,-6.3688,-6.3689,-6.3689,0,-6.2115,-6.2327,-6.2348,-6.2504,-6.2585,-6.2559,-6.2727,-6.2802,-6.2956,-6.3013,-6.2958,-6.3246,-6.3319,-6.3555,-6.3621,-6.3679,-6.3725,-6.3653,-6.3944,-6.3971,-6.3997,-6.4089,-6.4126,-6.3696,-6.3695,-6.3694,-6.3694,0,-6.244,-6.2587,-6.2707,-6.2858,-6.2952,-6.3113,-6.3159,-6.3252,-6.3253,-6.3296,-6.3494,-6.3582,-6.3727,-6.3783,-6.3785,-6.402,-6.3988,-6.3939,-6.3841,-6.404,-6.4128,-6.4163,-6.3707,-6.3704,-6.3702,-6.37,0,0,-6.2729,-6.2891,-6.2935,-6.3003,-6.3132,-6.3246,-6.3406,-6.3549,-6.363,-6.3736,-6.3871,-6.4066,-6.4022,-6.4103,-6.4114,-6.4223,-6.4431,-6.4161,-6.4164,-6.4209,-6.4697,-6.4734,-6.4775,-6.4414,-6.4421,-6.4426,-6.4688,0,-6.2978,-6.3261,-6.3286,-6.354,-6.3677,-6.3654,-6.3793,-6.3887,-6.3932,-6.4054,-6.4102,-6.4241,-6.4172,-6.4221,-6.4327,-6.4383,-6.4529,-6.4364,-6.454,-6.4546,-6.4514,-6.482,-6.486,-6.5102,-6.4722,-6.4728,-6.4732,0,-6.3305,-6.3424,-6.3693,-6.3804,-6.3862,-6.3987,-6.4121,-6.4238,-6.4344,-6.4369,-6.4461,-6.4457,-6.4621,-6.4517,-6.4743,-6.4631,-6.4704,-6.4742,-6.4752,-6.477,-6.4652,-6.4848,-6.518,-6.5217,-6.4786,-6.4781,-6.4777,0,-6.3492,-6.3718,-6.3909,-6.3968,-6.4102,-6.4191,-6.425,-6.435,-6.4435,-6.4552,-6.4608,-6.4741,-6.4815,-6.4918,-6.495,-6.4871,-6.5177,-6.5074,-6.5202,-6.5202,-6.5269,-6.5264,-6.5619,-6.5314,-6.5313,-6.5312,-6.5312,0,-6.3767,-6.3933,-6.3994,-6.4112,-6.4297,-6.4323,-6.4505,-6.456,-6.4649,-6.4776,-6.4763,-6.4883,-6.4918,-6.5044,-6.507,-6.5255,-6.5287,-6.5312,-6.5317,-6.5315,-6.5312,-6.5363,-6.5348,-6.5322,-6.532,-6.5318,-6.5316,0,-6.4007,-6.4055,-6.4261,-6.4372,-6.4404,-6.4535,-6.463,-6.4743,-6.4785,-6.4947,-6.4986,-6.5053,-6.52,-6.5243,-6.5419,-6.5437,-6.5654,-6.5643,-6.5619,-6.562,-6.5746,-6.5734,-6.6147,-6.6203,-6.586,-6.5863,-6.5866,0,-6.4181,-6.4308,-6.4433,-6.4518,-6.4582,-6.4719,-6.4806,-6.4837,-6.4928,-6.5059,-6.5157,-6.5302,-6.5421,-6.5658,-6.5722,-6.5857,-6.585,-6.5985,-6.587,-6.5863,-6.5854,-6.5846,-6.586,-6.6007,-6.6011,-6.6014,-6.6016,0,-6.4484,-6.4502,-6.4629,-6.4765,-6.487,-6.4978,-6.5082,-6.5152,-6.5197,-6.53,-6.5452,-6.5544,-6.5725,-6.5871,-6.6008,-6.6068,-6.6051,-6.6052,-6.6089,-6.6088,-6.6069,-6.6083,-6.568,-6.6042,-6.604,-6.6038,-6.6036,-6.6035,-6.4698,-6.481,-6.4916,-6.5059,-6.514,-6.5238,-6.535,-6.5407,-6.5535,-6.5686,-6.5695,-6.586,-6.5963,-6.6146,-6.6214,-6.6343,-6.6303,-6.6356,-6.637,-6.6383,-6.6395,-6.6048,-6.6368,-6.6367,-6.6366,-6.6366,-6.6365,0,-6.5002,-6.5069,-6.52,-6.5346,-6.5458,-6.5433,-6.5546,-6.5642,-6.5787,-6.5886,-6.6003,-6.6178,-6.6319,-6.6394,-6.6535,-6.6623,-6.6619,-6.6659,-6.6654,-6.6668,-6.6421,-6.6376,-6.6661,-6.6661,-6.6661,-6.6661,-6.666,-6.666,-6.5174,-6.5363,-6.5394,-6.5624,-6.569,-6.5852,-6.592,-6.601,-6.6089,-6.6285,-6.6403,-6.6451,-6.6541,-6.6688,-6.6816,-6.6834,-6.6887,-6.6933,-6.6947,-6.6715,-6.6685,-6.6657,-6.6614,-6.6944,-6.6944,-6.7183,-6.7185,-6.7187]}]]